Location: Summit Observatory
(39.5293°N, 75.7290°W)
Time: 02:59:06
(UTC-04:00)

Amateur Radio Satellites - All Passes

Search period start: 27 September 2016 02:29
Search period end: 28 September 2016 02:29
Location: Summit Observatory, 39.5293°N, 75.7290°W

Satellite Date Start Highest point End Downlink Frequencies (MHz)
Time Altitude Azimuth
SWISSCUBE 27 Sep 02:31:17 02:36:00 69° 74° (ENE) 02:40:45 437.505
TISAT 1 27 Sep 02:34:52 02:38:02 21° 265° (W) 02:41:13 437.305
BEESAT 27 Sep 02:44:22 02:49:07 84° 78° (ENE) 02:53:55 436.000
MOZHAYETS 4 27 Sep 02:46:03 02:48:27 14° 63° (ENE) 02:50:50
Gurwin Techsat 1B 27 Sep 02:54:17 02:59:32 59° 101° (E) 03:04:46 435.225
ITAMSAT 1 27 Sep 02:57:42 03:00:58 17° 92° (E) 03:04:13 435.822/435.867
BEESAT 3 27 Sep 03:01:58 03:04:17 15° 315° (NW) 03:06:37 437.485
AO-7 27 Sep 03:13:36 03:18:27 16° 91° (E) 03:23:15 29.400- 29.500
Cosmos 2491 27 Sep 03:14:28 03:23:11 65° 268° (W) 03:31:50 435.465 / 435.565
ISS 27 Sep 03:18:17 03:21:29 48° 33° (NNE) 03:24:41 145.825
KKS-1 27 Sep 03:18:31 03:21:46 20° 66° (ENE) 03:25:01 437.445
JAS-2 27 Sep 03:32:11 03:34:35 12° 309° (NW) 03:36:57 435.910
RS-15 27 Sep 03:35:45 03:46:32 33° 34° (NNE) 03:57:10 29.354- 29.394
Oscar 19 27 Sep 03:45:50 03:49:47 23° 295° (WNW) 03:53:43 437.125/150
Cosmos 2504 27 Sep 03:52:26 03:59:08 37° 88° (E) 04:05:35 435.465 / 435.565
STARS 27 Sep 03:54:55 03:58:23 23° 67° (ENE) 04:01:51 437.465
ITUPSAT 1 27 Sep 03:57:01 04:00:19 19° 267° (W) 04:03:39 437.325
CUBESAT XI-V 27 Sep 04:03:18 04:05:15 12° 62° (ENE) 04:07:13 437.345
YUBILEINY 27 Sep 04:12:37 04:21:19 64° 281° (W) 04:30:02 435.215
SWISSCUBE 27 Sep 04:12:42 04:14:15 11° 270° (W) 04:15:49 437.505
MOZHAYETS 4 27 Sep 04:20:37 04:25:05 57° 260° (W) 04:29:38
AIST 2 27 Sep 04:28:24 04:32:29 88° 300° (WNW) 04:36:39 435.215
PCSat 27 Sep 04:32:40 04:37:44 43° 112° (ESE) 04:42:51 145.827
Gurwin Techsat 1B 27 Sep 04:35:30 04:39:00 18° 297° (WNW) 04:42:28 435.225
ITAMSAT 1 27 Sep 04:35:39 04:40:46 57° 288° (WNW) 04:45:52 435.822/435.867
KKS-1 27 Sep 04:53:57 04:58:04 36° 262° (W) 05:02:12 437.445
ISS 27 Sep 04:55:28 04:57:43 17° 229° (SW) 04:59:56 145.825
AO-7 27 Sep 05:03:51 05:12:12 88° 108° (ESE) 05:20:31 29.400- 29.500
AIST 1 27 Sep 05:07:41 05:11:25 28° 90° (E) 05:15:09
AO-85 27 Sep 05:10:41 05:12:23 12° 39° (NE) 05:14:03 145.980
Cosmos 2491 27 Sep 05:17:16 05:18:08 10° 287° (WNW) 05:18:59 435.465 / 435.565
STARS 27 Sep 05:30:43 05:34:34 30° 263° (W) 05:38:27 437.465
DANDE 27 Sep 05:36:05 05:40:45 16° 59° (ENE) 05:45:21 436.750
CUBESAT XI-V 27 Sep 05:37:20 05:42:01 70° 260° (W) 05:46:43 437.345
Cosmos 2504 27 Sep 05:45:40 05:52:25 37° 285° (WNW) 05:58:59 435.465 / 435.565
BRITE-PL 27 Sep 05:48:01 05:51:44 22° 92° (E) 05:55:14 437.365/2234.400
RS-15 27 Sep 05:48:26 06:00:54 89° 60° (ENE) 06:13:01 29.354- 29.394
CUSAT 1 27 Sep 05:56:36 06:03:53 41° 71° (ENE) 06:10:05 437.405
HORYU 2 27 Sep 06:05:39 06:10:04 61° 101° (E) 06:14:28 437.375
AIST 2 27 Sep 06:10:23 06:11:37 11° 320° (NW) 06:12:52 435.215
NOAA 15 27 Sep 06:15:34 06:19:29 21° 94° (E) 06:23:21 137.62
PCSat 27 Sep 06:16:41 06:21:17 27° 309° (NW) 06:25:54 145.827
YUBILEINY 27 Sep 06:17:23 06:20:04 11° 303° (WNW) 06:22:45 435.215
STRAND 1 27 Sep 06:17:54 06:21:07 17° 63° (ENE) 06:24:20 437.568
Cubesat XI-IV 27 Sep 06:28:00 06:32:07 22° 94° (E) 06:36:12 437.490
CUTE-I 27 Sep 06:28:26 06:32:36 23° 94° (E) 06:36:44 437.470
AIST 1 27 Sep 06:45:29 06:48:59 23° 286° (WNW) 06:52:29
AO-85 27 Sep 06:49:19 06:53:27 79° 240° (WSW) 06:57:20 145.980
O/OREOS (USA 219) 27 Sep 06:54:56 06:58:20 21° 101° (E) 07:01:44 437.305
AO-7 27 Sep 06:58:11 07:03:56 21° 307° (NW) 07:09:41 29.400- 29.500
NOAA 18 27 Sep 07:00:51 07:05:51 35° 98° (E) 07:10:49 137.9125
DANDE 27 Sep 07:16:36 07:25:01 72° 79° (ENE) 07:32:51 436.750
GOMX 1 27 Sep 07:19:43 07:24:11 88° 111° (ESE) 07:28:23 467.674
LilacSat-2 27 Sep 07:25:26 07:29:16 81° 284° (WNW) 07:33:07 437.200
BRITE-PL 27 Sep 07:25:58 07:30:19 34° 291° (WNW) 07:34:22 437.365/2234.400
CUSAT 1 27 Sep 07:38:49 07:45:47 38° 273° (W) 07:51:44 437.405
HORYU 2 27 Sep 07:44:04 07:46:06 13° 297° (WNW) 07:48:07 437.375
DOVE 4 27 Sep 07:45:44 07:49:56 68° 101° (ESE) 07:54:02 437.250
NOAA 15 27 Sep 07:54:24 07:59:28 47° 289° (WNW) 08:04:30 137.62
STRAND 1 27 Sep 07:54:47 07:59:47 58° 259° (W) 08:04:50 437.568
CUTE 1.7 + AOD 2 27 Sep 08:00:35 08:03:28 17° 93° (E) 08:06:20 437.475
CANX-2 27 Sep 08:01:21 08:04:36 21° 94° (E) 08:07:49 2200.000
RS-15 27 Sep 08:02:57 08:11:43 24° 261° (W) 08:20:22 29.354- 29.394
SEEDS 27 Sep 08:04:31 08:06:29 13° 91° (E) 08:08:25 437.485
Cubesat XI-IV 27 Sep 08:07:17 08:12:21 45° 289° (WNW) 08:17:25 437.490
CUTE-I 27 Sep 08:07:44 08:12:48 44° 290° (WNW) 08:17:50 437.470
AAUSAT CUBESAT 2 27 Sep 08:29:42 08:31:38 13° 91° (E) 08:33:34 437.432
O/OREOS (USA 219) 27 Sep 08:33:17 08:37:28 36° 298° (WNW) 08:41:42 437.305
GONETS M04 27 Sep 08:34:59 08:43:15 47° 88° (E) 08:51:34
CUBEBUG 2 27 Sep 08:41:24 08:44:24 18° 94° (E) 08:47:25 437.445
NOAA 18 27 Sep 08:41:41 08:46:22 30° 294° (WNW) 08:51:02 137.9125
HO-68 27 Sep 08:55:23 09:02:30 67° 103° (ESE) 09:09:36 435.675
Cosmos 2499 27 Sep 08:58:06 09:05:00 52° 91° (E) 09:11:47 435.465 / 435.565
DANDE 27 Sep 09:00:35 09:07:00 25° 277° (W) 09:13:08 436.750
UWE-3 27 Sep 09:01:11 09:04:23 20° 94° (E) 09:07:38 435.000/436.395/437.385
PRISM 27 Sep 09:01:52 09:06:01 72° 75° (ENE) 09:10:12 437.425
CINEMA 3 27 Sep 09:03:59 09:08:06 62° 285° (WNW) 09:12:18 145.822/145.860
COMPASS 1 27 Sep 09:11:18 09:15:27 51° 100° (E) 09:19:33 437.405
UNISAT 6 27 Sep 09:15:55 09:17:35 12° 64° (ENE) 09:19:16 437.425
Oscar 11 27 Sep 09:31:51 09:35:32 26° 95° (E) 09:39:11 145.826/435.025
ZACube-1 27 Sep 09:32:04 09:35:48 27° 96° (E) 09:39:34 437.345
CUTE 1.7 + AOD 2 27 Sep 09:35:27 09:39:26 38° 288° (WNW) 09:43:24 437.475
CANX-2 27 Sep 09:36:39 09:40:29 32° 289° (WNW) 09:44:18 2200.000
SEEDS 27 Sep 09:38:18 09:42:27 50° 286° (WNW) 09:46:33 437.485
BEESAT 3 27 Sep 09:40:40 09:44:00 25° 50° (NE) 09:47:18 437.485
ANTELSAT 27 Sep 09:49:07 09:52:45 27° 70° (ENE) 09:56:21 437.575/2403.000
DELFI C3 27 Sep 09:56:02 09:58:50 18° 93° (E) 10:01:36 145.870
HUMSAT D 27 Sep 10:02:13 10:02:56 10° 90° (E) 10:03:40 437.325/437.525
AAUSAT CUBESAT 2 27 Sep 10:03:19 10:07:23 48° 286° (WNW) 10:11:24 437.432
TIGRISAT 27 Sep 10:09:23 10:13:26 43° 73° (ENE) 10:17:28 435.000
JAS-2 27 Sep 10:14:12 10:16:31 12° 51° (NE) 10:18:55 435.910
CUBEBUG 2 27 Sep 10:17:11 10:21:06 36° 288° (WNW) 10:25:07 437.445
FUNcube-1 27 Sep 10:26:11 10:30:30 77° 284° (WNW) 10:34:54 145.935
GONETS M04 27 Sep 10:32:10 10:40:10 37° 288° (WNW) 10:48:15
BEESAT 2 27 Sep 10:34:12 10:38:04 44° 54° (NE) 10:41:54 435.950
UWE-3 27 Sep 10:37:01 10:40:53 34° 289° (WNW) 10:44:51 435.000/436.395/437.385
DUCHIFAT 1 27 Sep 10:38:46 10:39:50 11° 63° (ENE) 10:40:55 145.980
QB50P1 27 Sep 10:39:08 10:41:03 13° 64° (ENE) 10:42:59 145.935-145.965
HO-68 27 Sep 10:44:11 10:49:36 24° 301° (WNW) 10:55:02 435.675
COMPASS 1 27 Sep 10:48:28 10:50:32 13° 295° (WNW) 10:52:35 437.405
UNISAT 6 27 Sep 10:49:35 10:53:48 58° 259° (W) 10:58:01 437.425
POPSAT HIP 1 27 Sep 10:51:36 10:54:23 18° 66° (ENE) 10:57:10 437.405
Cosmos 2499 27 Sep 10:52:41 10:58:25 26° 290° (WNW) 11:04:07 435.465 / 435.565
NANOSAT C BR1 27 Sep 11:07:42 11:11:07 25° 69° (ENE) 11:14:33 145.865
Oscar 11 27 Sep 11:07:57 11:11:34 26° 291° (WNW) 11:15:11 145.826/435.025
ZACube-1 27 Sep 11:08:26 11:11:58 25° 291° (WNW) 11:15:33 437.345
BEESAT 3 27 Sep 11:18:11 11:21:37 28° 246° (WSW) 11:25:01 437.485
PHONESAT 2.4 27 Sep 11:21:11 11:23:51 32° 156° (SSE) 11:26:33 2401.200-2431.200
ANTELSAT 27 Sep 11:26:00 11:29:25 23° 265° (W) 11:32:51 437.575/2403.000
QB50P2 27 Sep 11:29:40 11:33:45 50° 73° (ENE) 11:37:50 145.880/145.840
DELFI C3 27 Sep 11:30:08 11:33:43 32° 289° (WNW) 11:37:17 145.870
POLYITAN 1 27 Sep 11:31:54 11:35:58 50° 73° (ENE) 11:40:02 437.675
HUMSAT D 27 Sep 11:34:43 11:38:55 62° 285° (WNW) 11:43:09 437.325/437.525
TIGRISAT 27 Sep 11:47:57 11:50:20 15° 268° (W) 11:52:43 435.000
JAS-2 27 Sep 11:53:38 11:59:56 65° 72° (ENE) 12:07:06 435.910
ESTCUBE 1 27 Sep 12:03:27 12:07:42 38° 98° (E) 12:11:53 437.505/2401.250
VELOX 1 27 Sep 12:06:32 12:09:42 19° 94° (E) 12:12:50 145.980
DUCHIFAT 1 27 Sep 12:10:50 12:14:59 64° 259° (W) 12:19:08 145.980
CUBEBUG 1 27 Sep 12:12:04 12:15:51 29° 96° (E) 12:19:35 437.445
QB50P1 27 Sep 12:12:15 12:16:21 53° 260° (W) 12:20:29 145.935-145.965
BEESAT 2 27 Sep 12:13:08 12:15:31 15° 250° (WSW) 12:17:52 435.950
BUGSAT 1 27 Sep 12:16:08 12:20:09 56° 75° (ENE) 12:24:09 437.445
POPSAT HIP 1 27 Sep 12:25:58 12:29:52 37° 262° (W) 12:33:48 437.405
YUBILEINY 27 Sep 12:31:32 12:33:40 11° 57° (ENE) 12:35:48 435.215
Gurwin Techsat 1B 27 Sep 12:39:13 12:40:36 11° 58° (ENE) 12:42:00 435.225
NANOSAT C BR1 27 Sep 12:43:16 12:46:45 25° 264° (W) 12:50:15 145.865
AIST 2 27 Sep 12:50:33 12:54:35 44° 54° (NE) 12:58:37 435.215
SPROUT 27 Sep 12:55:54 12:59:50 37° 98° (E) 13:03:47 437.525
PHONESAT 2.4 27 Sep 12:56:54 12:59:51 80° 351° (N) 13:02:49 2401.200-2431.200
AISAT 27 Sep 12:58:13 13:02:38 78° 103° (ESE) 13:07:00 437.250
M-CUBED/EXP-1 PRIME 27 Sep 12:59:12 13:02:11 33° 103° (ESE) 13:05:11 437.505
QB50P2 27 Sep 13:08:01 13:09:49 12° 269° (W) 13:11:38 145.880/145.840
UKube-1 27 Sep 13:08:36 13:12:44 44° 99° (E) 13:16:50 .
POLYITAN 1 27 Sep 13:10:16 13:12:03 12° 269° (W) 13:13:49 437.675
50 SAT 27 Sep 13:10:58 13:14:37 69° 285° (WNW) 13:18:14 437.505
PCSat 27 Sep 13:21:24 13:26:10 30° 52° (NE) 13:30:54 145.827
Oscar 19 27 Sep 13:21:35 13:26:40 57° 72° (ENE) 13:31:45 437.125/150
DX 1 27 Sep 13:35:55 13:40:15 68° 285° (WNW) 13:44:31 434.975-435.025
ESTCUBE 1 27 Sep 13:40:55 13:44:13 20° 294° (WNW) 13:47:30 437.505/2401.250
JAS-2 27 Sep 13:40:56 13:45:38 21° 272° (W) 13:50:45 435.910
VELOX 1 27 Sep 13:42:13 13:46:15 36° 289° (WNW) 13:50:15 145.980
Cosmos 2504 27 Sep 13:47:36 13:49:44 11° 62° (ENE) 13:51:54 435.465 / 435.565
CUBEBUG 1 27 Sep 13:48:32 13:51:59 23° 292° (WNW) 13:55:25 437.445
BUGSAT 1 27 Sep 13:54:55 13:55:51 11° 269° (W) 13:56:46 437.445
AUBIESAT-1 27 Sep 13:56:38 13:59:48 43° 291° (WNW) 14:02:57 437.475
AO-7 27 Sep 14:11:35 14:17:54 25° 55° (NE) 14:24:13 29.400- 29.500
Gurwin Techsat 1B 27 Sep 14:14:23 14:19:42 85° 75° (ENE) 14:25:03 435.225
ITAMSAT 1 27 Sep 14:14:35 14:18:40 24° 65° (ENE) 14:22:46 435.822/435.867
TISAT 1 27 Sep 14:18:17 14:22:25 61° 101° (E) 14:26:31 437.305
Cosmos 2491 27 Sep 14:18:59 14:26:19 31° 84° (E) 14:33:41 435.465 / 435.565
ITUPSAT 1 27 Sep 14:21:17 14:23:01 12° 90° (E) 14:24:46 437.325
YUBILEINY 27 Sep 14:23:51 14:32:30 63° 79° (E) 14:41:04 435.215
AIST 2 27 Sep 14:30:03 14:32:43 17° 250° (WSW) 14:35:22 435.215
SPROUT 27 Sep 14:32:35 14:35:29 18° 294° (WNW) 14:38:23 437.525
PHONESAT 2.4 27 Sep 14:33:06 14:36:03 82° 10° (N) 14:39:01 2401.200-2431.200
SWISSCUBE 27 Sep 14:33:18 14:36:41 19° 93° (E) 14:40:02 437.505
M-CUBED/EXP-1 PRIME 27 Sep 14:35:10 14:36:27 12° 299° (WNW) 14:37:44 437.505
UKube-1 27 Sep 14:45:45 14:48:24 16° 295° (WNW) 14:51:04 .
BEESAT 27 Sep 14:46:01 14:49:48 23° 95° (E) 14:53:33 436.000
Oscar 19 27 Sep 15:03:06 15:06:19 16° 268° (W) 15:09:32 437.125/150
PCSat 27 Sep 15:04:37 15:09:37 38° 249° (WSW) 15:14:34 145.827
SO-50 27 Sep 15:21:04 15:25:42 47° 116° (ESE) 15:30:18 436.795
Cosmos 2504 27 Sep 15:36:59 15:44:25 71° 81° (E) 15:52:21 435.465 / 435.565
ITAMSAT 1 27 Sep 15:53:03 15:57:53 40° 261° (W) 16:02:45 435.822/435.867
TISAT 1 27 Sep 15:56:12 15:57:31 11° 297° (WNW) 15:58:50 437.305
ITUPSAT 1 27 Sep 15:56:30 16:01:18 69° 286° (WNW) 16:06:04 437.325
Gurwin Techsat 1B 27 Sep 15:59:03 16:00:16 11° 271° (W) 16:01:29 435.225
AO-7 27 Sep 16:01:31 16:09:51 77° 254° (WSW) 16:18:11 29.400- 29.500
PHONESAT 2.4 27 Sep 16:09:22 16:12:02 31° 205° (SSW) 16:14:42 2401.200-2431.200
SWISSCUBE 27 Sep 16:10:05 16:14:38 43° 289° (WNW) 16:19:10 437.505
Cosmos 2491 27 Sep 16:14:05 16:22:38 55° 283° (WNW) 16:31:18 435.465 / 435.565
MOZHAYETS 4 27 Sep 16:16:32 16:20:47 35° 97° (E) 16:25:02
YUBILEINY 27 Sep 16:21:46 16:28:34 27° 278° (W) 16:35:23 435.215
BEESAT 27 Sep 16:23:16 16:27:38 36° 290° (WNW) 16:31:59 436.000
KKS-1 27 Sep 16:45:24 16:49:36 42° 99° (E) 16:53:48 437.445
GOMX 1 27 Sep 16:52:12 16:53:34 11° 61° (ENE) 16:54:55 467.674
AIST 1 27 Sep 16:52:16 16:56:35 79° 81° (E) 17:00:50
BRITE-PL 27 Sep 16:56:27 17:01:17 29° 68° (ENE) 17:06:02 437.365/2234.400
SO-50 27 Sep 17:02:31 17:06:23 23° 314° (NW) 17:10:13 436.795
HORYU 2 27 Sep 17:02:36 17:06:51 49° 72° (ENE) 17:11:07 437.375
O/OREOS (USA 219) 27 Sep 17:04:43 17:08:58 35° 62° (ENE) 17:13:10 437.305
STARS 27 Sep 17:20:17 17:24:31 49° 100° (E) 17:28:45 437.465
Cosmos 2504 27 Sep 17:31:59 17:37:04 20° 278° (W) 17:42:22 435.465 / 435.565
NOAA 15 27 Sep 17:34:28 17:39:05 31° 67° (ENE) 17:43:42 137.62
CUBESAT XI-V 27 Sep 17:35:07 17:39:16 31° 96° (E) 17:43:23 437.345
Cubesat XI-IV 27 Sep 17:48:57 17:53:40 34° 68° (ENE) 17:58:25 437.490
CUTE-I 27 Sep 17:49:14 17:53:58 34° 68° (ENE) 17:58:43 437.470
MOZHAYETS 4 27 Sep 17:54:07 17:57:44 23° 293° (WNW) 18:01:21
AO-7 27 Sep 18:00:16 18:03:49 13° 271° (W) 18:07:22 29.400- 29.500
LilacSat-2 27 Sep 18:06:25 18:09:56 40° 73° (ENE) 18:13:29 437.200
RS-15 27 Sep 18:06:57 18:10:53 12° 93° (E) 18:14:51 29.354- 29.394
KKS-1 27 Sep 18:22:55 18:25:50 17° 295° (WNW) 18:28:44 437.445
GOMX 1 27 Sep 18:25:27 18:30:53 84° 77° (ENE) 18:36:06 467.674
NOAA 18 27 Sep 18:26:09 18:31:32 62° 72° (ENE) 18:36:55 137.9125
BRITE-PL 27 Sep 18:34:14 18:39:32 39° 263° (W) 18:44:48 437.365/2234.400
HORYU 2 27 Sep 18:41:21 18:43:39 14° 268° (W) 18:46:00 437.375
O/OREOS (USA 219) 27 Sep 18:44:38 18:48:07 21° 259° (W) 18:51:35 437.305
GONETS M04 27 Sep 18:47:03 18:53:31 22° 65° (ENE) 18:59:54
DOVE 4 27 Sep 18:49:19 18:54:19 64° 75° (ENE) 18:59:04 437.250
Cosmos 2499 27 Sep 18:50:13 18:54:54 17° 66° (ENE) 18:59:44 435.465 / 435.565
CUTE 1.7 + AOD 2 27 Sep 18:53:56 18:55:26 12° 63° (ENE) 18:56:55 437.475
CANX-2 27 Sep 18:54:22 18:56:32 14° 65° (ENE) 18:58:42 2200.000
CUSAT 1 27 Sep 18:55:50 19:01:26 39° 87° (E) 19:08:11 437.405
STARS 27 Sep 18:57:57 19:00:28 15° 296° (WNW) 19:02:57 437.465
CUBESAT XI-V 27 Sep 19:12:39 19:16:30 26° 292° (WNW) 19:20:20 437.345
NOAA 15 27 Sep 19:14:03 19:18:45 32° 263° (W) 19:23:30 137.62
HO-68 27 Sep 19:22:51 19:29:34 45° 66° (ENE) 19:36:17 435.675
Cubesat XI-IV 27 Sep 19:29:08 19:33:43 29° 264° (W) 19:38:20 437.490
CUTE-I 27 Sep 19:29:27 19:33:59 29° 264° (W) 19:38:34 437.470
CUBEBUG 2 27 Sep 19:39:53 19:41:59 14° 65° (ENE) 19:44:04 437.445
LilacSat-2 27 Sep 19:42:50 19:44:26 12° 268° (W) 19:46:01 437.200
ISS 27 Sep 19:58:06 20:00:44 23° 132° (SE) 20:03:22 145.825
UWE-3 27 Sep 19:58:31 20:00:46 14° 65° (ENE) 20:02:59 435.000/436.395/437.385
COMPASS 1 27 Sep 20:01:10 20:04:50 30° 70° (ENE) 20:08:31 437.405
CINEMA 3 27 Sep 20:04:16 20:08:48 79° 258° (WSW) 20:13:09 145.822/145.860
STRAND 1 27 Sep 20:06:03 20:11:05 51° 100° (E) 20:16:05 437.568
GOMX 1 27 Sep 20:07:50 20:09:26 11° 271° (W) 20:11:01 467.674
NOAA 18 27 Sep 20:09:17 20:12:35 16° 268° (W) 20:15:55 137.9125
RS-15 27 Sep 20:09:21 20:20:40 66° 114° (ESE) 20:32:36 29.354- 29.394
DANDE 27 Sep 20:23:25 20:28:20 75° 96° (E) 20:34:59 436.750
Oscar 11 27 Sep 20:26:18 20:29:18 19° 67° (ENE) 20:32:19 145.826/435.025
CUTE 1.7 + AOD 2 27 Sep 20:26:32 20:30:42 61° 259° (W) 20:34:57 437.475
ZACube-1 27 Sep 20:27:48 20:30:43 19° 67° (ENE) 20:33:38 437.345
CANX-2 27 Sep 20:27:49 20:31:55 50° 261° (W) 20:36:05 2200.000
SEEDS 27 Sep 20:28:30 20:32:42 85° 259° (W) 20:36:57 437.485
DOVE 4 27 Sep 20:29:54 20:32:18 13° 269° (W) 20:34:39 437.250
CUSAT 1 27 Sep 20:37:41 20:43:24 37° 290° (WNW) 20:50:19 437.405
Cosmos 2499 27 Sep 20:41:16 20:48:52 87° 263° (W) 20:57:04 435.465 / 435.565
GONETS M04 27 Sep 20:42:29 20:51:19 78° 265° (W) 21:00:02
PRISM 27 Sep 20:47:37 20:47:51 10° 90° (E) 20:48:07 437.425
AAUSAT CUBESAT 2 27 Sep 20:51:58 20:56:07 87° 258° (WSW) 21:00:19 437.432
AO-85 27 Sep 21:01:32 21:06:32 45° 116° (ESE) 21:11:15 145.980
HO-68 27 Sep 21:11:02 21:17:22 34° 263° (W) 21:23:45 435.675
CUBEBUG 2 27 Sep 21:14:08 21:18:13 48° 261° (W) 21:22:15 437.445
FUNcube-1 27 Sep 21:20:38 21:24:45 71° 76° (ENE) 21:28:52 145.935
UWE-3 27 Sep 21:32:50 21:36:50 45° 261° (W) 21:40:50 435.000/436.395/437.385
ISS 27 Sep 21:34:02 21:37:05 36° 329° (NNW) 21:40:09 145.825
COMPASS 1 27 Sep 21:37:15 21:40:23 20° 266° (W) 21:43:34 437.405
STRAND 1 27 Sep 21:46:15 21:49:51 19° 296° (WNW) 21:53:26 437.568
Oscar 11 27 Sep 22:01:10 22:05:09 36° 263° (W) 22:09:10 145.826/435.025
ZACube-1 27 Sep 22:03:02 22:06:47 33° 263° (W) 22:10:32 437.345
DANDE 27 Sep 22:08:59 22:12:19 16° 302° (WNW) 22:16:08 436.750
DELFI C3 27 Sep 22:14:10 22:18:08 64° 260° (W) 22:22:08 145.870
PRISM 27 Sep 22:19:27 22:23:32 60° 285° (WNW) 22:27:33 437.425
RS-15 27 Sep 22:22:56 22:33:52 42° 318° (NW) 22:45:21 29.354- 29.394
HUMSAT D 27 Sep 22:24:41 22:28:45 78° 75° (ENE) 22:32:52 437.325/437.525
Cosmos 2499 27 Sep 22:37:12 22:40:56 14° 281° (W) 22:44:48 435.465 / 435.565
UNISAT 6 27 Sep 22:42:01 22:45:53 29° 97° (E) 22:49:48 437.425
GONETS M04 27 Sep 22:42:43 22:46:32 14° 285° (WNW) 22:50:21
AO-85 27 Sep 22:42:52 22:47:08 26° 311° (NW) 22:51:13 145.980
ESTCUBE 1 27 Sep 23:02:03 23:06:03 32° 69° (ENE) 23:10:04 437.505/2401.250
VELOX 1 27 Sep 23:03:27 23:06:15 17° 65° (ENE) 23:09:03 145.980
CUBEBUG 1 27 Sep 23:07:19 23:10:47 23° 68° (ENE) 23:14:14 437.445
JAS-2 27 Sep 23:08:18 23:10:08 11° 83° (E) 23:11:57 435.910
AUBIESAT-1 27 Sep 23:08:49 23:10:56 14° 62° (ENE) 23:13:00 437.475
ISS 27 Sep 23:12:55 23:14:18 12° 348° (NNW) 23:15:42 145.825
ANTELSAT 27 Sep 23:17:01 23:21:26 72° 101° (ESE) 23:25:56 437.575/2403.000
TIGRISAT 27 Sep 23:37:38 23:42:01 71° 285° (WNW) 23:46:30 435.000
M-CUBED/EXP-1 PRIME 27 Sep 23:44:03 23:48:01 44° 69° (ENE) 23:51:43 437.505
50 SAT 27 Sep 23:46:30 23:49:55 40° 73° (ENE) 23:53:21 437.505
SPROUT 27 Sep 23:48:42 23:52:14 26° 69° (ENE) 23:55:46 437.525
SO-50 27 Sep 23:53:33 23:57:42 32° 50° (NE) 00:01:44 436.795
AISAT 27 Sep 23:54:16 23:58:39 61° 74° (ENE) 00:03:03 437.250
DUCHIFAT 1 27 Sep 23:56:26 23:59:34 20° 94° (E) 00:02:42 145.980
QB50P1 27 Sep 23:58:08 00:01:37 25° 96° (E) 00:05:05 145.935-145.965
UKube-1 28 Sep 00:02:10 00:06:03 33° 70° (ENE) 00:09:57 .
POPSAT HIP 1 28 Sep 00:11:22 00:15:13 34° 98° (E) 00:19:03 437.405
UNISAT 6 28 Sep 00:18:54 00:22:28 25° 291° (WNW) 00:26:06 437.425
NANOSAT C BR1 28 Sep 00:27:35 00:31:41 51° 100° (E) 00:35:46 145.865
SRMSAT 28 Sep 00:29:53 00:30:30 10° 178° (S) 00:31:07 437.500
DX 1 28 Sep 00:30:02 00:34:25 89° 262° (W) 00:38:50 434.975-435.025
Cosmos 2491 28 Sep 00:31:21 00:35:36 14° 59° (ENE) 00:39:51 435.465 / 435.565
VELOX 1 28 Sep 00:38:03 00:42:20 46° 261° (W) 00:46:37 145.980
ESTCUBE 1 28 Sep 00:39:15 00:42:52 23° 265° (W) 00:46:29 437.505/2401.250
AUBIESAT-1 28 Sep 00:41:10 00:45:07 45° 255° (WSW) 00:48:49 437.475
RS-15 28 Sep 00:42:35 00:51:05 21° 351° (N) 00:59:44 29.354- 29.394
CUBEBUG 1 28 Sep 00:42:57 00:46:52 31° 263° (W) 00:50:49 437.445
JAS-2 28 Sep 00:48:36 00:56:28 67° 101° (E) 01:03:53 435.910
QB50P2 28 Sep 00:50:52 00:55:06 74° 283° (WNW) 00:59:17 145.880/145.840
ISS 28 Sep 00:50:54 00:51:58 11° 9° (N) 00:53:02 145.825
POLYITAN 1 28 Sep 00:53:05 00:57:18 73° 284° (WNW) 01:01:30 437.675
ANTELSAT 28 Sep 00:56:23 00:57:34 11° 297° (WNW) 00:58:46 437.575/2403.000
BEESAT 3 28 Sep 01:06:57 01:10:45 55° 118° (ESE) 01:14:36 437.485
TISAT 1 28 Sep 01:08:52 01:12:46 39° 72° (ENE) 01:16:41 437.305
M-CUBED/EXP-1 PRIME 28 Sep 01:20:25 01:22:37 14° 261° (W) 01:24:46 437.505
50 SAT 28 Sep 01:22:20 01:23:37 11° 268° (W) 01:24:53 437.505
SPROUT 28 Sep 01:24:32 01:28:05 25° 264° (W) 01:31:39 437.525
ITUPSAT 1 28 Sep 01:27:15 01:29:36 14° 62° (ENE) 01:31:58 437.325
DUCHIFAT 1 28 Sep 01:31:35 01:35:17 31° 289° (WNW) 01:38:58 145.980
YUBILEINY 28 Sep 01:33:23 01:36:36 12° 75° (ENE) 01:39:49 435.215
QB50P1 28 Sep 01:33:49 01:37:19 26° 291° (WNW) 01:40:49 145.935-145.965
BUGSAT 1 28 Sep 01:33:51 01:37:51 72° 285° (WNW) 01:41:51 437.445
AISAT 28 Sep 01:33:55 01:35:29 12° 269° (W) 01:37:03 437.250
SO-50 28 Sep 01:34:13 01:38:01 27° 248° (WSW) 01:41:46 436.795
Oscar 19 28 Sep 01:34:52 01:38:45 21° 94° (E) 01:42:36 437.125/150
UKube-1 28 Sep 01:38:56 01:42:09 20° 266° (W) 01:45:22 .
SWISSCUBE 28 Sep 01:39:04 01:42:32 20° 65° (ENE) 01:46:01 437.505
POPSAT HIP 1 28 Sep 01:47:45 01:50:44 19° 293° (WNW) 01:53:44 437.405
BEESAT 28 Sep 01:51:40 01:55:27 24° 67° (ENE) 01:59:17 436.000
BEESAT 2 28 Sep 02:02:16 02:06:12 72° 302° (WNW) 02:10:11 435.950
NANOSAT C BR1 28 Sep 02:04:54 02:06:58 13° 296° (WNW) 02:09:02 145.865
